SCP
0 0 0 0 0 0 0 0 0 0 0 0 0 0 0 0 0 0 0 0 0 0 0 0 0 0 0 0 0 0 0 0 0 0 0 0 0 0 0 0 0 0 0
0 0 0 0 0 0 0 0 0 0 0 0 0 0 0 0 0 0 0 0 0 0 0 0 0 0 0 0 0 0 0 0 0 0 0 0 0 0 0 0 0 0 0
0 0 0 0 0 0 0 0 0 0 0 0 0 0 0 0 0 0 0 0 0 0 0 0 0 0 0 0 0 0 0 0 0 0 0 0 0 0 0 0 0 0 0
0 0 0 0 0 0 0 0 0 0 0 0 0 0 0 0 0 0 0 0 0 0 0 0 0 0 0 0 0 0 0 0 0 0 0 0 0 0 0 0 0 0 0
0 0 0 0 0 0 0 0 0 0 0 0 0 0 0 0 0 0 0 0 0 0 0 0 0 0 0 0 0 0 0 0 0 0 0 0 0 0 0 0 0 0 0
0 0 0 0 0 0 0 0 0 0 0 0 0 0 0 0 0 0 0 0 0 0 0 0 0 0 0 0 0 0 0 0 0 0 0 0 0 0 0 0 0 0 0
0 0 0 0 0 0 0 0 0 0 0 0 0 0 0 0 0 0 0 0 0 0 0 0 0 0 0 0 0 0 0 0 0 0 0 0 0 0 0 0 0 0 0
0 0 0 0 0 0 0 0 0 0 0 0 0 0 0 0 0 0 0 0 0 0 0 0 0 0 0 0 0 0 0 0 0 0 0 0 0 0 0 0 0 0 0
0 0 0 0 0 0 0 0 0 0 0 0 0 0 0 0 0 0 0 0 0 0 0 0 0 0 0 0 0 0 0 0 0 0 0 0 0 0 0 0 0 0 0
0 0 0 0 0 0 0 0 0 0 0 0 0 0 0 0 0 0 0 0 0 0 0 0 0 0 0 0 0 0 0 0 0 0 0 0 0 0 0 0 0 0 0
0 0 0 0 0 0 0 0 0 0 0 0 0 0 0 0 0 0 0 0 0 0 0 0 0 0 0 0 0 0 0 0 0 0 0 0 0 0 0 0 0 0 0
0 0 0 0 0 0 0 0 0 0 0 0 0 0 0 0 0 0 0 0 0 0 0 0 0 0 0 0 0 0 0 0 0 0 0 0 0 0 0 0 0 0 0
0 0 0 0 0 0 0 0 0 0 0 0 0 0 0 0 0 0 0 0 0 0 0 0 0 0 0 0 0 0 0 0 0 0 0 0 0 0 0 0 0 0 0
0 0 0 0 0 0 0 0 0 0 0 0 0 0 0 0 0 0 0 0 0 0 0 0 0 0 0 0 0 0 0 0 0 0 0 0 0 0 0 0 0 0 0
0 0 0 0 0 0 0 0 0 0 0 0 0 0 0 0 0 0 0 0 0 0 0 0 0 0 0 0 0 0 0 0 0 0 0 0 0 0 0 0 0 0 0
0 0 0 0 0 0 0 0 0 0 0 0 0 0 0 0 0 0 0 0 0 0 0 0 0 0 0 0 0 0 0 0 0 0 0 0 0 0 0 0 0 0 0
0 0 0 0 0 0 0 0 0 0 0 0 0 0 0 0 0 0 0 0 0 0 0 0 0 0 0 0 0 0 0 0 0 0 0 0 0 0 0 0 0 0 0
0 0 0 0 0 0 0 0 0 0 0 0 0 0 0 0 0 0 0 0 0 0 0 0 0 0 0 0 0 0 0 0 0 0 0 0 0 0 0 0 0 0 0
0 0 0 0 0 0 0 0 0 0 0 0 0 0 0 0 0 0 0 0 0 0 0 0 0 0 0 0 0 0 0 0 0 0 0 0 0 0 0 0 0 0 0
0 0 0 0 0 0 0 0 0 0 0 0 0 0 0 0 0 0 0 0 0 0 0 0 0 0 0 0 0 0 0 0 0 0 0 0 0 0 0 0 0 0 0
0 0 0 0 0 0 0 0 0 0 0 0 0 0 0 0 0 0 0 0 0 0 0 0 0 0 0 0 0 0 0 0 0 0 0 0 0 0 0 0 0 0 0
0 0 0 0 0 0 0 0 0 0 0 0 0 0 0 0 0 0 0 0 0 0 0 0 0 0 0 0 0 0 0 0 0 0 0 0 0 0 0 0 0 0 0
0 0 0 0 0 0 0 0 0 0 0 0 0 0 0 0 0 0 0 0 0 0 0 0 0 0 0 0 0 0 0 0 0 0 0 0 0 0 0 0 0 0 0
0 0 0 0 0 0 0 0 0 0 0 0 0 0 0 0 0 0 0 0 0 0 0 0 0 0 0 0 0 0 0 0 0 0 0 0 0 0 0 0 0 0 0
0 0 0 0 0 0 0 0 0 0 0 0 0 0 0 0 0 0 0 0 0 0 0 0 0 0 0 0 0 0 0 0 0 0 0 0 0 0 0 0 0 0 0
0 0 0 0 0 0 0 0 0 0 0 0 0 0 0 0 0 0 0 0 0 0 0 0 0 0 0 0 0 0 0 0 0 0 0 0 0 0 0 0 0 0 0
Wind_Speed
2 1 1 1 1 1 1 1 1 1 1 1 1 2 2 3 3 3 2 6 8 8 8 8 8 8 7 7 7 7 6 6 6 5 4 4 4 4 5 5 6 7 7
2 1 1 1 1 1 1 1 2 1 1 1 1 2 2 2 3 3 3 4 6 7 8 9 9 8 7 7 6 6 6 6 6 6 6 5 5 5 6 6 6 7 8
2 2 1 1 1 1 1 1 1 1 1 1 2 2 2 3 3 3 3 3 3 5 7 9 8 8 7 7 6 6 5 5 6 6 6 6 6 6 7 7 8 8 8
2 2 1 1 1 0 0 1 1 1 1 1 2 2 2 2 3 3 3 3 2 2 4 7 7 7 7 7 7 6 6 5 5 5 6 6 7 7 8 9 9 9 9
1 1 1 0 0 0 0 1 0 1 1 2 2 2 2 2 3 2 3 3 3 3 2 3 4 4 5 6 6 6 6 5 5 5 6 7 7 8 8 9 9 10 10
1 1 1 0 1 1 0 0 1 1 1 1 2 2 2 2 2 2 3 2 2 3 2 2 2 2 3 4 5 5 6 5 5 6 7 7 8 8 9 10 10 10 11
1 1 1 0 0 1 1 1 1 1 1 1 1 2 2 2 2 2 2 2 2 2 2 2 2 1 1 2 3 5 6 6 6 7 7 7 8 8 9 10 10 11 11
1 0 0 0 1 1 1 1 1 1 1 0 1 0 2 3 2 2 1 2 2 1 2 2 2 2 1 1 2 4 6 7 8 8 8 8 8 9 10 10 10 10 10
1 0 0 1 1 1 1 1 1 1 1 1 1 2 1 2 2 2 1 1 2 1 2 2 2 2 2 1 1 3 5 7 8 9 9 9 9 10 10 10 10 10 10
1 1 1 1 1 1 1 1 1 1 1 1 1 1 2 1 1 2 2 1 1 2 2 2 2 2 2 1 2 3 5 6 8 9 9 9 10 10 10 9 10 10 10
1 1 1 1 1 1 1 1 1 1 1 2 2 1 1 1 2 2 3 2 2 1 2 2 2 2 2 1 2 3 5 6 8 9 9 10 9 9 10 10 10 11 11
1 1 1 1 1 1 1 1 1 2 2 2 2 2 2 2 2 2 3 3 3 2 2 1 1 2 1 1 2 3 4 5 7 8 10 10 10 10 10 11 11 12 12
1 2 1 1 1 1 2 2 2 2 2 2 2 2 2 2 2 2 2 2 2 2 2 1 1 1 1 1 2 3 4 5 6 8 9 10 9 9 9 10 11 11 12
2 2 2 2 2 2 2 2 2 2 2 2 3 3 2 2 2 2 2 2 2 2 2 3 1 1 1 1 2 2 2 5 6 7 8 8 8 8 9 9 10 11 11
3 3 2 2 2 2 2 2 2 3 2 3 3 3 3 2 2 2 2 2 3 3 4 2 2 1 1 1 2 1 2 4 5 6 6 7 7 7 7 8 9 10 11
3 3 3 3 3 3 3 2 3 3 3 3 3 3 3 2 2 2 2 2 3 3 4 2 2 1 1 1 2 1 2 5 5 5 6 6 6 7 7 7 8 9 10
3 4 4 4 4 4 3 3 3 3 3 4 3 3 4 3 2 2 2 2 3 3 4 2 1 1 1 1 2 2 2 2 3 5 6 6 6 7 7 7 8 9 10
4 4 4 4 4 4 4 4 4 4 4 5 4 4 4 3 4 3 3 3 3 3 4 4 2 1 2 2 2 2 2 2 2 5 6 7 7 7 7 8 9 9 10
4 4 4 5 5 5 4 5 5 5 5 5 5 5 5 4 4 3 4 4 3 3 3 3 2 1 1 1 1 2 2 2 3 4 5 6 6 7 7 8 8 9 9
4 5 5 5 5 5 5 5 5 5 5 5 5 5 5 5 5 5 4 4 3 3 2 2 2 2 2 1 1 2 2 2 2 3 3 4 6 7 7 8 8 8 9
5 5 5 5 5 5 5 5 5 5 5 5 5 5 5 7 7 6 4 4 4 3 3 3 3 2 2 1 2 1 2 2 3 2 2 3 3 3 3 6 7 8 8
4 4 5 5 5 5 8 10 7 5 5 6 6 5 5 6 8 9 10 8 7 5 5 4 3 4 4 3 2 2 1 1 3 1 2 3 2 3 3 3 6 8 8
4 4 5 5 6 7 11 11 10 6 5 6 6 5 4 5 6 4 6 8 8 9 8 5 5 5 4 4 3 2 2 2 3 2 2 3 2 3 3 4 8 8 8
4 4 5 5 6 7 11 11 10 6 5 6 6 6 6 5 5 5 4 4 4 4 5 4 5 4 4 3 4 3 3 2 2 2 1 3 2 3 4 4 7 8 8
4 4 4 5 6 7 10 11 9 4 4 6 6 6 6 6 9 9 5 5 4 3 4 5 5 4 4 4 3 2 1 1 3 2 1 1 2 3 3 3 4 7 8
5 5 5 5 6 7 10 11 9 4 5 5 4 5 9 8 9 9 6 6 6 4 2 1 2 2 2 2 3 2 3 2 2 2 1 1 1 2 4 2 2 3 4
Wind_Direction
159 161 162 168 183 180 178 193 214 230 243 250 241 233 234 230 225 223 230 236 239 241 241 245 243 239 240 238 235 232 230 234 235 233 241 252 263 281 290 289 290 292 292
157 161 168 181 207 209 200 198 213 221 243 242 251 245 244 237 230 228 229 235 239 241 242 245 248 247 246 244 242 238 238 243 241 241 244 249 258 268 279 286 292 294 292
151 161 166 189 225 239 223 218 226 216 240 250 256 256 248 237 229 229 226 223 231 239 242 246 251 254 250 245 244 244 245 246 245 248 253 258 263 268 273 280 283 286 289
152 161 165 198 223 232 200 213 216 244 260 262 265 265 257 248 240 231 223 220 220 230 239 246 254 255 251 248 247 247 248 246 245 251 258 264 268 272 273 274 277 279 282
125 138 159 194 194 172 233 255 264 224 260 272 273 272 265 254 249 241 233 223 219 219 221 240 246 247 249 249 255 256 256 253 253 258 262 265 269 272 275 276 277 278 278
108 118 131 137 186 169 216 262 272 260 250 257 281 283 272 259 247 235 235 228 217 212 205 207 220 237 241 247 257 264 264 261 263 267 268 269 271 273 275 276 277 279 278
57 93 99 149 202 198 222 231 254 267 274 288 309 308 301 272 255 244 233 225 225 215 198 199 203 204 230 237 250 264 267 266 267 267 266 270 273 275 278 278 277 278 280
24 75 127 211 228 220 237 239 232 248 281 175 172 272 314 321 290 257 231 220 230 207 204 205 195 204 203 210 255 268 271 270 270 268 270 272 275 277 277 280 282 284 286
297 288 224 213 243 214 228 250 231 223 252 259 213 187 203 248 299 307 284 241 229 211 221 209 206 211 204 209 248 267 271 273 272 270 271 274 277 280 282 284 286 287 290
317 303 269 245 229 231 236 243 226 235 233 258 266 247 240 221 232 292 303 300 268 233 229 229 221 215 202 212 238 263 273 274 276 278 277 276 279 282 286 290 291 294 295
329 319 293 280 262 256 251 249 245 238 230 237 242 244 250 263 237 242 275 299 309 275 258 244 228 218 207 213 236 261 267 273 279 281 281 280 281 285 288 290 291 293 293
304 300 289 259 253 259 264 259 245 239 244 249 251 233 212 215 221 226 251 270 278 287 293 271 240 233 216 218 248 273 270 280 285 288 287 286 285 287 291 293 294 294 293
276 282 285 270 263 253 256 257 249 245 242 245 245 248 240 232 219 221 241 260 267 283 287 283 243 231 230 222 255 283 283 292 291 290 290 289 290 292 294 293 293 296 297
256 263 263 264 262 258 257 253 254 247 241 243 247 245 247 245 230 223 221 230 269 273 259 258 251 218 247 244 263 273 282 297 295 293 293 296 298 298 296 294 296 297 298
258 256 252 252 258 256 249 244 248 250 242 239 243 243 246 247 237 236 227 216 223 257 261 239 242 245 248 239 261 257 274 290 299 301 301 303 303 302 297 297 299 300 300
249 255 258 253 254 255 251 242 247 246 242 247 239 238 242 242 237 232 230 231 226 235 256 242 237 252 243 262 276 265 266 290 292 296 297 302 306 305 299 302 304 304 303
243 243 246 248 247 247 244 239 243 243 245 254 249 238 241 237 235 233 228 229 231 227 251 265 247 252 238 260 291 287 278 269 278 288 293 298 302 300 300 305 304 302 301
245 244 245 247 248 245 240 236 245 243 240 247 249 244 243 237 238 233 227 228 229 221 231 255 254 241 245 256 271 282 289 287 277 287 289 294 294 293 299 303 303 302 302
251 248 241 243 246 246 243 238 237 241 239 239 238 238 241 233 239 236 233 233 231 228 223 239 254 241 253 265 289 285 279 285 289 291 290 292 294 296 301 304 304 304 305
246 246 243 243 243 243 241 238 235 239 242 241 237 235 236 229 233 233 234 235 229 228 230 236 245 247 248 248 241 272 291 295 300 306 298 299 299 301 304 305 306 307 308
247 245 246 248 245 241 239 235 234 236 239 242 239 236 235 235 233 230 229 227 217 221 224 233 243 250 245 236 240 238 267 302 294 287 303 301 298 295 300 302 304 304 306
255 252 248 247 247 247 252 248 241 232 235 236 239 238 238 239 240 241 242 234 220 215 218 222 233 240 246 238 232 233 253 299 289 284 297 293 279 281 283 281 298 303 307
259 257 256 251 254 257 259 258 252 239 232 234 233 235 239 235 234 235 244 244 239 235 225 212 223 232 232 223 209 227 233 241 253 277 297 285 292 287 289 296 302 303 307
253 254 255 252 254 260 262 261 258 247 238 236 230 228 231 236 228 223 223 227 234 242 238 224 221 229 226 216 206 218 226 250 275 275 245 273 294 287 298 292 300 305 309
259 257 254 250 251 261 263 261 257 241 243 243 234 228 227 231 236 229 215 219 232 248 250 230 224 227 228 225 203 166 184 250 281 274 207 252 287 296 291 284 299 316 318
256 259 258 251 248 256 264 263 255 234 243 244 238 233 235 233 235 227 210 208 226 235 206 204 225 244 242 229 223 205 196 220 250 265 213 229 281 320 309 289 288 308 317